CSN7556 ZSPD-ZBAD

Flight info

Callsign CSN7556
Flight time N/A
Altitude 34100
Route PIK81D/17L PIKAS G330 PIMOL A593 DALIM W157 AVBOX
Aircraft A320/M-SDE3FGHIRWY/LB1

Departure

Time N/A
Airport Shanghai Pudong International Airport (ZSPD)

Arrival

Time 2026-04-30 14:26
Airport Beijing Daxing International Airport (ZBAD)
Time Latitude Longitude Altitude Speed Heading
2026-04-30 14:12 38.42171 116.59335 17508 ft 411 kts 352°
2026-04-30 14:12 38.45000 116.58901 17141 ft 409 kts 352°
2026-04-30 14:12 38.47822 116.58468 16772 ft 407 kts 352°
2026-04-30 14:12 38.49681 116.58185 16534 ft 406 kts 352°
2026-04-30 14:13 38.53385 116.57623 16067 ft 403 kts 353°
2026-04-30 14:13 38.56167 116.57200 15708 ft 402 kts 353°
2026-04-30 14:13 38.58936 116.56775 15322 ft 400 kts 353°
2026-04-30 14:13 38.61687 116.56354 14946 ft 392 kts 353°
2026-04-30 14:14 38.64403 116.55942 14582 ft 397 kts 353°
2026-04-30 14:14 38.67146 116.55520 14153 ft 397 kts 353°
2026-04-30 14:14 38.69885 116.55095 13836 ft 396 kts 353°
2026-04-30 14:14 38.72615 116.54671 13508 ft 395 kts 353°
2026-04-30 14:15 38.75337 116.54248 13161 ft 393 kts 353°
2026-04-30 14:15 38.78029 116.53829 12826 ft 383 kts 353°
2026-04-30 14:15 38.80577 116.53432 12493 ft 368 kts 353°
2026-04-30 14:15 38.83071 116.53045 12167 ft 355 kts 353°
2026-04-30 14:16 38.85484 116.52671 11841 ft 343 kts 353°
2026-04-30 14:16 38.87821 116.52310 11514 ft 332 kts 353°
2026-04-30 14:16 38.90084 116.51960 11195 ft 323 kts 353°
2026-04-30 14:16 38.92283 116.51621 10878 ft 315 kts 353°
2026-04-30 14:17 38.94437 116.51288 10564 ft 308 kts 353°
2026-04-30 14:17 38.96534 116.50963 10253 ft 301 kts 353°
2026-04-30 14:17 38.98596 116.50644 9946 ft 295 kts 353°
2026-04-30 14:17 39.00618 116.50330 9619 ft 290 kts 353°
2026-04-30 14:18 39.02600 116.50021 9276 ft 285 kts 353°
2026-04-30 14:18 39.04550 116.49719 8941 ft 280 kts 353°
2026-04-30 14:18 39.08350 116.49122 8287 ft 270 kts 353°
2026-04-30 14:19 39.12027 116.48547 7638 ft 262 kts 352°
2026-04-30 14:19 39.13820 116.48273 7325 ft 258 kts 352°
2026-04-30 14:19 39.15591 116.48005 6959 ft 256 kts 352°
2026-04-30 14:20 39.17363 116.47736 6517 ft 257 kts 352°
2026-04-30 14:20 39.19148 116.47466 6052 ft 259 kts 352°
2026-04-30 14:20 39.22750 116.46918 5106 ft 262 kts 351°
2026-04-30 14:21 39.24566 116.46646 4641 ft 263 kts 350°
2026-04-30 14:21 39.26148 116.46417 4227 ft 264 kts 350°
2026-04-30 14:21 39.29779 116.45855 3433 ft 260 kts 349°
2026-04-30 14:22 39.31556 116.45577 3096 ft 253 kts 348°
2026-04-30 14:22 39.34700 116.45092 2519 ft 203 kts 347°
2026-04-30 14:22 39.36010 116.44888 2264 ft 178 kts 346°
2026-04-30 14:23 39.38248 116.44535 1817 ft 151 kts 344°
2026-04-30 14:23 39.40299 116.44208 1427 ft 148 kts 345°
2026-04-30 14:24 39.42333 116.43887 1042 ft 146 kts 348°
2026-04-30 14:24 39.43331 116.43731 861 ft 142 kts 348°
2026-04-30 14:25 39.45266 116.43492 499 ft 140 kts 355°
2026-04-30 14:25 39.47196 116.43147 127 ft 139 kts 352°
2026-04-30 14:26 39.48657 116.42900 96 ft 64 kts 353°
2026-04-30 14:26 39.49037 116.42840 94 ft 51 kts 352°
2026-04-30 14:26 39.49500 116.42690 96 ft 14 kts 326°
2026-04-30 14:27 39.49583 116.42625 92 ft 11 kts 328°
2026-04-30 14:27 39.49651 116.42562 91 ft 13 kts 321°
2026-04-30 14:27 39.49745 116.42509 90 ft 16 kts 350°
2026-04-30 14:28 39.49951 116.42478 87 ft 14 kts 355°
2026-04-30 14:28 39.50045 116.42463 89 ft 13 kts 351°
2026-04-30 14:28 39.50122 116.42427 91 ft 12 kts 311°
2026-04-30 14:28 39.50131 116.42389 88 ft 3 kts 277°
2026-04-30 14:29 39.50148 116.42223 87 ft 15 kts 323°
2026-04-30 14:29 39.50311 116.42189 87 ft 14 kts 353°
2026-04-30 14:30 39.50602 116.42146 87 ft 11 kts 353°
2026-04-30 14:31 39.50761 116.42122 87 ft 12 kts 353°
2026-04-30 14:31 39.50812 116.42005 85 ft 0 kts 263°
2026-04-30 14:32 39.50812 116.42003 85 ft 2 kts 263°
2026-04-30 14:32 39.50810 116.41985 85 ft 6 kts 262°
2026-04-30 14:32 39.50821 116.41915 88 ft 7 kts 291°
2026-04-30 14:33 39.50828 116.41895 85 ft 7 kts 292°